Time,TemperatureF,DewpointF,PressureIn,WindDirection,WindDirectionDegrees,WindSpeedMPH,WindSpeedGustMPH,Humidity,HourlyPrecipIn,Conditions,Clouds,dailyrainin,SoftwareType,DateUTC
2013-03-05 00:00:00,8.2,5.2,30.19,SSE,164,0.0,1.0,87,0.00,,,0.00,meteohub,2013-03-05 05:00:00,
2013-03-05 00:05:00,8.1,5.0,30.19,SSE,160,0.0,1.0,87,0.00,,,0.00,meteohub,2013-03-05 05:05:00,
2013-03-05 00:11:00,7.9,4.8,30.19,SSE,159,0.0,1.0,87,0.00,,,0.00,meteohub,2013-03-05 05:11:00,
2013-03-05 00:16:00,7.9,5.0,30.19,SSE,160,0.0,1.0,88,0.00,,,0.00,meteohub,2013-03-05 05:16:00,
2013-03-05 00:21:00,7.7,4.8,30.19,SSE,160,0.0,1.0,88,0.00,,,0.00,meteohub,2013-03-05 05:21:00,
2013-03-05 00:26:00,7.7,4.6,30.19,South,172,0.0,1.0,87,0.00,,,0.00,meteohub,2013-03-05 05:26:00,
2013-03-05 00:31:00,7.5,4.5,30.19,SSW,202,0.0,2.0,87,0.00,,,0.00,meteohub,2013-03-05 05:31:00,
2013-03-05 00:36:00,7.5,4.3,30.19,South,182,0.0,2.0,86,0.00,,,0.00,meteohub,2013-03-05 05:36:00,
2013-03-05 00:41:00,7.3,4.1,30.19,South,182,0.0,2.0,86,0.00,,,0.00,meteohub,2013-03-05 05:41:00,
2013-03-05 00:46:00,7.5,4.5,30.19,South,182,0.0,1.0,87,0.00,,,0.00,meteohub,2013-03-05 05:46:00,
2013-03-05 00:51:00,7.5,4.5,30.19,South,182,0.0,1.0,87,0.00,,,0.00,meteohub,2013-03-05 05:51:00,
2013-03-05 00:56:00,7.5,4.5,30.19,South,182,0.0,0.0,87,0.00,,,0.00,meteohub,2013-03-05 05:56:00,
2013-03-05 01:01:00,7.5,4.6,30.20,South,182,0.0,0.0,88,0.00,,,0.00,meteohub,2013-03-05 06:01:00,
2013-03-05 01:06:00,7.7,4.8,30.20,South,181,0.0,0.0,88,0.00,,,0.00,meteohub,2013-03-05 06:06:00,
2013-03-05 01:11:00,7.5,4.5,30.19,ESE,106,0.0,0.0,87,0.00,,,0.00,meteohub,2013-03-05 06:11:00,
2013-03-05 01:16:00,7.2,4.1,30.19,ESE,108,0.0,1.0,87,0.00,,,0.00,meteohub,2013-03-05 06:16:00,
2013-03-05 01:21:00,7.0,3.9,30.19,ESE,108,0.0,1.0,87,0.00,,,0.00,meteohub,2013-03-05 06:21:00,
2013-03-05 01:26:00,6.8,3.7,30.19,ESE,107,0.0,0.0,87,0.00,,,0.00,meteohub,2013-03-05 06:26:00,
2013-03-05 01:31:00,6.6,3.6,30.19,ESE,107,0.0,0.0,87,0.00,,,0.00,meteohub,2013-03-05 06:31:00,
2013-03-05 01:36:00,6.4,3.4,30.19,ESE,107,0.0,0.0,87,0.00,,,0.00,meteohub,2013-03-05 06:36:00,
2013-03-05 01:41:00,6.3,3.2,30.19,ESE,107,0.0,0.0,87,0.00,,,0.00,meteohub,2013-03-05 06:41:00,
2013-03-05 01:46:00,6.1,3.0,30.19,ESE,107,0.0,1.0,87,0.00,,,0.00,meteohub,2013-03-05 06:46:00,
2013-03-05 01:51:00,6.3,3.6,30.19,ESE,108,0.0,1.0,88,0.00,,,0.00,meteohub,2013-03-05 06:51:00,
2013-03-05 01:56:00,6.1,3.4,30.19,ESE,107,0.0,0.0,88,0.00,,,0.00,meteohub,2013-03-05 06:56:00,
2013-03-05 02:01:00,6.1,3.4,30.19,ESE,107,0.0,0.0,88,0.00,,,0.00,meteohub,2013-03-05 07:01:00,
2013-03-05 02:06:00,5.7,2.7,30.19,ESE,107,0.0,0.0,87,0.00,,,0.00,meteohub,2013-03-05 07:06:00,
2013-03-05 02:11:00,5.4,2.3,30.19,ESE,122,0.0,1.0,87,0.00,,,0.00,meteohub,2013-03-05 07:11:00,
2013-03-05 02:16:00,5.2,2.5,30.20,ESE,122,0.0,1.0,88,0.00,,,0.00,meteohub,2013-03-05 07:16:00,
2013-03-05 02:21:00,5.2,2.5,30.20,ESE,122,0.0,1.0,88,0.00,,,0.00,meteohub,2013-03-05 07:21:00,
2013-03-05 02:26:00,4.8,2.1,30.20,ESE,122,0.0,0.0,88,0.00,,,0.00,meteohub,2013-03-05 07:26:00,
2013-03-05 02:31:00,4.8,2.1,30.19,ESE,122,0.0,0.0,88,0.00,,,0.00,meteohub,2013-03-05 07:31:00,
2013-03-05 02:36:00,4.6,1.9,30.20,ESE,122,0.0,0.0,88,0.00,,,0.00,meteohub,2013-03-05 07:36:00,
2013-03-05 02:41:00,4.8,2.3,30.20,ESE,122,0.0,0.0,89,0.00,,,0.00,meteohub,2013-03-05 07:41:00,
2013-03-05 02:46:00,4.8,2.3,30.19,ESE,122,0.0,0.0,89,0.00,,,0.00,meteohub,2013-03-05 07:46:00,
2013-03-05 02:51:00,4.8,2.1,30.19,ESE,122,1.0,1.0,88,0.00,,,0.00,meteohub,2013-03-05 07:51:00,
2013-03-05 02:56:00,4.5,1.8,30.20,South,173,0.0,1.0,88,0.00,,,0.00,meteohub,2013-03-05 07:56:00,
2013-03-05 03:01:00,4.3,1.6,30.19,South,172,0.0,1.0,88,0.00,,,0.00,meteohub,2013-03-05 08:01:00,
2013-03-05 03:06:00,4.1,1.4,30.19,South,171,0.0,1.0,88,0.00,,,0.00,meteohub,2013-03-05 08:06:00,
2013-03-05 03:12:00,4.1,1.4,30.20,South,171,0.0,1.0,88,0.00,,,0.00,meteohub,2013-03-05 08:12:00,
2013-03-05 03:17:00,4.3,1.8,30.19,South,172,0.0,0.0,89,0.00,,,0.00,meteohub,2013-03-05 08:17:00,
2013-03-05 03:22:00,4.6,2.1,30.19,South,172,0.0,0.0,89,0.00,,,0.00,meteohub,2013-03-05 08:22:00,
2013-03-05 03:27:00,4.8,2.3,30.19,South,172,0.0,0.0,89,0.00,,,0.00,meteohub,2013-03-05 08:27:00,
2013-03-05 03:32:00,4.8,2.3,30.19,South,172,0.0,0.0,89,0.00,,,0.00,meteohub,2013-03-05 08:32:00,
2013-03-05 03:37:00,4.8,2.3,30.19,South,172,1.0,0.0,89,0.00,,,0.00,meteohub,2013-03-05 08:37:00,
2013-03-05 03:42:00,4.5,1.8,30.19,SSE,160,0.0,1.0,88,0.00,,,0.00,meteohub,2013-03-05 08:42:00,
2013-03-05 03:47:00,4.3,1.6,30.19,SSE,160,0.0,1.0,88,0.00,,,0.00,meteohub,2013-03-05 08:47:00,
2013-03-05 03:52:00,4.1,1.6,30.19,SSE,160,0.0,1.0,89,0.00,,,0.00,meteohub,2013-03-05 08:52:00,
2013-03-05 03:57:00,4.1,1.6,30.19,SSE,160,0.0,0.0,89,0.00,,,0.00,meteohub,2013-03-05 08:57:00,
2013-03-05 04:02:00,3.9,1.2,30.19,SSE,160,0.0,0.0,88,0.00,,,0.00,meteohub,2013-03-05 09:02:00,
2013-03-05 04:07:00,3.6,0.9,30.19,SSE,160,0.0,0.0,88,0.00,,,0.00,meteohub,2013-03-05 09:07:00,
2013-03-05 04:12:00,3.6,1.0,30.19,SSE,160,0.0,0.0,89,0.00,,,0.00,meteohub,2013-03-05 09:12:00,
2013-03-05 04:17:00,3.7,1.2,30.19,SSE,160,0.0,0.0,89,0.00,,,0.00,meteohub,2013-03-05 09:17:00,
2013-03-05 04:22:00,3.7,1.2,30.19,SSE,160,1.0,0.0,89,0.00,,,0.00,meteohub,2013-03-05 09:22:00,
2013-03-05 04:27:00,3.4,0.7,30.19,SSE,158,0.0,1.0,88,0.00,,,0.00,meteohub,2013-03-05 09:27:00,
2013-03-05 04:32:00,3.2,0.7,30.18,SSE,158,0.0,1.0,89,0.00,,,0.00,meteohub,2013-03-05 09:32:00,
2013-03-05 04:37:00,3.4,1.0,30.18,SSE,158,0.0,1.0,90,0.00,,,0.00,meteohub,2013-03-05 09:37:00,
2013-03-05 04:42:00,3.7,1.4,30.18,SSE,158,0.0,0.0,90,0.00,,,0.00,meteohub,2013-03-05 09:42:00,
2013-03-05 04:47:00,3.7,1.4,30.18,SSE,158,0.0,0.0,90,0.00,,,0.00,meteohub,2013-03-05 09:47:00,
2013-03-05 04:52:00,4.1,1.8,30.18,SSE,158,0.0,0.0,90,0.00,,,0.00,meteohub,2013-03-05 09:52:00,
2013-03-05 04:57:00,3.9,1.4,30.17,SSE,158,0.0,0.0,89,0.00,,,0.00,meteohub,2013-03-05 09:57:00,
2013-03-05 05:02:00,3.7,1.2,30.17,SSE,158,0.0,0.0,89,0.00,,,0.00,meteohub,2013-03-05 10:02:00,
2013-03-05 05:07:00,3.6,0.9,30.17,South,169,0.0,0.0,88,0.00,,,0.00,meteohub,2013-03-05 10:07:00,
2013-03-05 05:12:00,3.4,0.9,30.17,South,169,0.0,1.0,89,0.00,,,0.00,meteohub,2013-03-05 10:12:00,
2013-03-05 05:17:00,3.9,1.9,30.17,South,169,0.0,1.0,91,0.00,,,0.00,meteohub,2013-03-05 10:17:00,
2013-03-05 05:22:00,4.5,2.5,30.17,South,169,0.0,1.0,91,0.00,,,0.00,meteohub,2013-03-05 10:22:00,
2013-03-05 05:27:00,5.2,3.2,30.17,South,169,0.0,0.0,91,0.00,,,0.00,meteohub,2013-03-05 10:27:00,
2013-03-05 05:32:00,5.5,3.6,30.17,South,169,0.0,0.0,91,0.00,,,0.00,meteohub,2013-03-05 10:32:00,
2013-03-05 05:37:00,5.9,3.9,30.17,South,170,0.0,0.0,91,0.00,,,0.00,meteohub,2013-03-05 10:37:00,
2013-03-05 05:42:00,5.9,3.6,30.16,SSE,165,0.0,1.0,90,0.00,,,0.00,meteohub,2013-03-05 10:42:00,
2013-03-05 05:47:00,5.9,3.6,30.17,SSE,165,0.0,1.0,90,0.00,,,0.00,meteohub,2013-03-05 10:47:00,
2013-03-05 05:52:00,6.6,4.8,30.17,SSE,165,0.0,1.0,92,0.00,,,0.00,meteohub,2013-03-05 10:52:00,
2013-03-05 05:57:00,7.3,5.5,30.17,SSE,165,0.0,0.0,92,0.00,,,0.00,meteohub,2013-03-05 10:57:00,
2013-03-05 06:02:00,8.2,6.6,30.17,SSE,165,0.0,0.0,93,0.00,,,0.00,meteohub,2013-03-05 11:02:00,
2013-03-05 06:07:00,8.8,7.2,30.17,NE,50,1.0,0.0,93,0.00,,,0.00,meteohub,2013-03-05 11:07:00,
2013-03-05 06:12:00,9.3,7.5,30.17,ENE,65,0.0,1.0,92,0.00,,,0.00,meteohub,2013-03-05 11:12:00,
2013-03-05 06:17:00,7.9,4.6,30.17,East,99,0.0,2.0,86,0.00,,,0.00,meteohub,2013-03-05 11:17:00,
2013-03-05 06:22:00,6.3,2.7,30.16,ESE,107,0.0,2.0,85,0.00,,,0.00,meteohub,2013-03-05 11:22:00,
2013-03-05 06:27:00,5.5,2.3,30.16,SE,128,1.0,2.0,86,0.00,,,0.00,meteohub,2013-03-05 11:27:00,
2013-03-05 06:32:00,4.6,1.4,30.17,SE,127,0.0,2.0,86,0.00,,,0.00,meteohub,2013-03-05 11:32:00,
2013-03-05 06:37:00,4.3,1.2,30.17,SE,128,0.0,1.0,87,0.00,,,0.00,meteohub,2013-03-05 11:37:00,
2013-03-05 06:42:00,3.9,0.9,30.17,SE,127,0.0,1.0,87,0.00,,,0.00,meteohub,2013-03-05 11:42:00,
2013-03-05 06:47:00,3.4,0.1,30.17,SE,127,0.0,1.0,86,0.00,,,0.00,meteohub,2013-03-05 11:47:00,
2013-03-05 06:52:00,2.7,-0.6,30.17,SE,127,0.0,1.0,86,0.00,,,0.00,meteohub,2013-03-05 11:52:00,
2013-03-05 06:57:00,2.5,-0.6,30.17,SE,128,0.0,1.0,87,0.00,,,0.00,meteohub,2013-03-05 11:57:00,
2013-03-05 07:02:00,2.7,0.0,30.17,SE,127,0.0,1.0,88,0.00,,,0.00,meteohub,2013-03-05 12:02:00,
2013-03-05 07:07:00,2.7,0.1,30.16,SE,127,0.0,0.0,89,0.00,,,0.00,meteohub,2013-03-05 12:07:00,
2013-03-05 07:12:00,2.8,0.3,30.16,SE,127,0.0,0.0,89,0.00,,,0.00,meteohub,2013-03-05 12:12:00,
2013-03-05 07:17:00,3.0,0.7,30.16,SE,127,0.0,0.0,90,0.00,,,0.00,meteohub,2013-03-05 12:17:00,
2013-03-05 07:22:00,3.2,0.9,30.16,SE,127,0.0,0.0,90,0.00,,,0.00,meteohub,2013-03-05 12:22:00,
2013-03-05 07:27:00,3.4,1.0,30.16,SE,128,0.0,0.0,90,0.00,,,0.00,meteohub,2013-03-05 12:27:00,
2013-03-05 07:32:00,3.6,1.2,30.16,SE,127,0.0,0.0,90,0.00,,,0.00,meteohub,2013-03-05 12:32:00,
2013-03-05 07:37:00,3.9,1.9,30.16,SE,127,0.0,0.0,91,0.00,,,0.00,meteohub,2013-03-05 12:37:00,
2013-03-05 07:42:00,4.3,2.3,30.16,SE,127,0.0,0.0,91,0.00,,,0.00,meteohub,2013-03-05 12:42:00,
2013-03-05 07:47:00,4.5,2.1,30.16,SE,127,0.0,0.0,90,0.00,,,0.00,meteohub,2013-03-05 12:47:00,
2013-03-05 07:52:00,4.6,2.3,30.16,SE,127,0.0,0.0,90,0.00,,,0.00,meteohub,2013-03-05 12:52:00,
2013-03-05 07:57:00,5.4,3.4,30.16,SE,127,0.0,0.0,91,0.00,,,0.00,meteohub,2013-03-05 12:57:00,
2013-03-05 08:02:00,6.6,4.6,30.16,SE,127,0.0,0.0,91,0.00,,,0.00,meteohub,2013-03-05 13:02:00,
2013-03-05 08:07:00,8.2,6.1,30.17,SE,126,0.0,0.0,91,0.00,,,0.00,meteohub,2013-03-05 13:07:00,
2013-03-05 08:12:00,8.8,6.3,30.17,SE,127,0.0,0.0,89,0.00,,,0.00,meteohub,2013-03-05 13:12:00,
2013-03-05 08:17:00,10.0,7.9,30.17,SE,127,0.0,0.0,91,0.00,,,0.00,meteohub,2013-03-05 13:17:00,
2013-03-05 08:22:00,11.1,8.6,30.17,NW,306,0.0,1.0,89,0.00,,,0.00,meteohub,2013-03-05 13:22:00,
2013-03-05 08:27:00,12.0,9.1,30.17,NW,316,2.0,2.0,88,0.00,,,0.00,meteohub,2013-03-05 13:27:00,
2013-03-05 08:32:00,13.3,10.4,30.16,NW,317,0.0,2.0,88,0.00,,,0.00,meteohub,2013-03-05 13:32:00,
2013-03-05 08:37:00,14.5,11.1,30.16,NW,317,0.0,2.0,86,0.00,,,0.00,meteohub,2013-03-05 13:37:00,
2013-03-05 08:42:00,15.4,10.9,30.16,NW,317,0.0,2.0,82,0.00,,,0.00,meteohub,2013-03-05 13:42:00,
2013-03-05 08:47:00,15.8,10.9,30.17,NW,317,0.0,0.0,81,0.00,,,0.00,meteohub,2013-03-05 13:47:00,
2013-03-05 08:52:00,16.3,11.8,30.16,NW,317,1.0,1.0,82,0.00,,,0.00,meteohub,2013-03-05 13:52:00,
2013-03-05 08:57:00,17.2,13.3,30.16,NW,311,0.0,2.0,84,0.00,,,0.00,meteohub,2013-03-05 13:57:00,
2013-03-05 09:02:00,18.3,14.4,30.16,NW,311,0.0,2.0,84,0.00,,,0.00,meteohub,2013-03-05 14:02:00,
2013-03-05 09:07:00,19.9,15.1,30.16,West,272,0.0,2.0,81,0.00,,,0.00,meteohub,2013-03-05 14:07:00,
2013-03-05 09:12:00,20.1,15.3,30.16,West,259,0.0,2.0,81,0.00,,,0.00,meteohub,2013-03-05 14:12:00,
2013-03-05 09:17:00,20.7,16.0,30.15,West,262,0.0,1.0,82,0.00,,,0.00,meteohub,2013-03-05 14:17:00,
2013-03-05 09:22:00,21.6,16.7,30.15,West,281,1.0,1.0,81,0.00,,,0.00,meteohub,2013-03-05 14:22:00,
2013-03-05 09:27:00,21.7,16.5,30.16,NW,321,0.0,2.0,80,0.00,,,0.00,meteohub,2013-03-05 14:27:00,
2013-03-05 09:32:00,22.1,16.5,30.15,NNE,17,1.0,2.0,79,0.00,,,0.00,meteohub,2013-03-05 14:32:00,
2013-03-05 09:37:00,22.6,17.1,30.15,NNW,340,2.0,4.0,79,0.00,,,0.00,meteohub,2013-03-05 14:37:00,
2013-03-05 09:42:00,23.7,18.1,30.14,ENE,58,0.0,4.0,79,0.00,,,0.00,meteohub,2013-03-05 14:42:00,
2013-03-05 09:47:00,24.4,18.5,30.14,East,93,0.0,4.0,78,0.00,,,0.00,meteohub,2013-03-05 14:47:00,
2013-03-05 09:52:00,25.0,18.9,30.14,East,83,0.0,4.0,77,0.00,,,0.00,meteohub,2013-03-05 14:52:00,
2013-03-05 09:57:00,25.9,19.8,30.14,South,183,1.0,4.0,77,0.00,,,0.00,meteohub,2013-03-05 14:57:00,
2013-03-05 10:02:00,26.1,19.6,30.14,West,270,2.0,4.0,76,0.00,,,0.00,meteohub,2013-03-05 15:02:00,
2013-03-05 10:07:00,26.2,19.8,30.14,WSW,250,1.0,10.0,76,0.00,,,0.00,meteohub,2013-03-05 15:07:00,
2013-03-05 10:12:00,26.2,19.4,30.13,SW,224,1.0,10.0,75,0.00,,,0.00,meteohub,2013-03-05 15:12:00,
2013-03-05 10:17:00,26.4,19.6,30.13,NE,41,4.0,12.0,75,0.00,,,0.00,meteohub,2013-03-05 15:17:00,
2013-03-05 10:22:00,26.2,19.4,30.13,South,189,3.0,12.0,75,0.00,,,0.00,meteohub,2013-03-05 15:22:00,
2013-03-05 10:27:00,26.4,19.2,30.13,SSE,161,1.0,8.0,74,0.00,,,0.00,meteohub,2013-03-05 15:27:00,
2013-03-05 10:32:00,26.8,19.6,30.12,NE,42,4.0,8.0,74,0.00,,,0.00,meteohub,2013-03-05 15:32:00,
2013-03-05 10:37:00,26.6,19.4,30.12,NE,36,2.0,10.0,74,0.00,,,0.00,meteohub,2013-03-05 15:37:00,
2013-03-05 10:42:00,27.1,19.9,30.12,ESE,104,2.0,10.0,74,0.00,,,0.00,meteohub,2013-03-05 15:42:00,
2013-03-05 10:47:00,27.7,20.1,30.12,SW,221,1.0,10.0,73,0.00,,,0.00,meteohub,2013-03-05 15:47:00,
2013-03-05 10:52:00,28.0,20.1,30.12,SSE,154,1.0,4.0,72,0.00,,,0.00,meteohub,2013-03-05 15:52:00,
2013-03-05 10:57:00,28.4,19.9,30.12,South,171,4.0,5.0,70,0.00,,,0.00,meteohub,2013-03-05 15:57:00,
2013-03-05 11:02:00,28.6,19.8,30.11,ESE,102,2.0,8.0,69,0.00,,,0.00,meteohub,2013-03-05 16:02:00,
2013-03-05 11:07:00,28.6,20.1,30.11,SSE,168,5.0,9.0,70,0.00,,,0.00,meteohub,2013-03-05 16:07:00,
2013-03-05 11:12:00,28.8,19.9,30.11,ESE,106,4.0,9.0,69,0.00,,,0.00,meteohub,2013-03-05 16:12:00,
2013-03-05 11:17:00,28.9,19.8,30.11,SSW,209,1.0,9.0,68,0.00,,,0.00,meteohub,2013-03-05 16:17:00,
2013-03-05 11:22:00,29.1,20.3,30.10,SE,141,2.0,7.0,69,0.00,,,0.00,meteohub,2013-03-05 16:22:00,
2013-03-05 11:27:00,29.7,20.5,30.10,South,178,2.0,6.0,68,0.00,,,0.00,meteohub,2013-03-05 16:27:00,
2013-03-05 11:32:00,29.8,20.7,30.10,ESE,109,2.0,7.0,68,0.00,,,0.00,meteohub,2013-03-05 16:32:00,
2013-03-05 11:37:00,30.2,20.5,30.10,SSW,209,3.0,13.0,67,0.00,,,0.00,meteohub,2013-03-05 16:37:00,
2013-03-05 11:42:00,30.2,20.3,30.10,East,92,4.0,13.0,66,0.00,,,0.00,meteohub,2013-03-05 16:42:00,
2013-03-05 11:47:00,30.4,20.7,30.10,ESE,102,5.0,11.0,67,0.00,,,0.00,meteohub,2013-03-05 16:47:00,
2013-03-05 11:52:00,30.0,20.5,30.10,WSW,255,0.0,13.0,67,0.00,,,0.00,meteohub,2013-03-05 16:52:00,
2013-03-05 11:57:00,30.7,21.0,30.09,East,93,3.0,13.0,67,0.00,,,0.00,meteohub,2013-03-05 16:57:00,
2013-03-05 12:02:00,30.7,21.0,30.10,South,189,2.0,13.0,67,0.00,,,0.00,meteohub,2013-03-05 17:02:00,
2013-03-05 12:07:00,31.3,20.8,30.10,ESE,122,2.0,7.0,65,0.00,,,0.00,meteohub,2013-03-05 17:07:00,
2013-03-05 12:12:00,31.5,20.7,30.09,ESE,103,0.0,7.0,64,0.00,,,0.00,meteohub,2013-03-05 17:12:00,
2013-03-05 12:17:00,31.8,21.7,30.09,North,1,2.0,7.0,66,0.00,,,0.00,meteohub,2013-03-05 17:17:00,
2013-03-05 12:22:00,31.5,20.7,30.09,East,88,4.0,7.0,64,0.00,,,0.00,meteohub,2013-03-05 17:22:00,
2013-03-05 12:27:00,31.3,20.5,30.09,SSE,160,2.0,10.0,64,0.00,,,0.00,meteohub,2013-03-05 17:27:00,
2013-03-05 12:32:00,31.6,20.8,30.09,SSE,162,2.0,10.0,64,0.00,,,0.00,meteohub,2013-03-05 17:32:00,
2013-03-05 12:37:00,31.6,21.2,30.08,NNE,27,3.0,10.0,65,0.00,,,0.00,meteohub,2013-03-05 17:37:00,
2013-03-05 12:42:00,32.2,21.7,30.08,NE,44,1.0,7.0,65,0.00,,,0.00,meteohub,2013-03-05 17:42:00,
2013-03-05 12:47:00,31.8,21.0,30.08,NE,48,1.0,7.0,64,0.00,,,0.00,meteohub,2013-03-05 17:47:00,
2013-03-05 12:52:00,32.0,21.2,30.08,NNW,330,8.0,8.0,64,0.00,,,0.00,meteohub,2013-03-05 17:52:00,
2013-03-05 12:57:00,31.6,20.5,30.08,NNE,26,4.0,9.0,63,0.00,,,0.00,meteohub,2013-03-05 17:57:00,
2013-03-05 13:02:00,31.5,21.0,30.07,NNE,25,5.0,9.0,65,0.00,,,0.00,meteohub,2013-03-05 18:02:00,
2013-03-05 13:07:00,31.5,22.1,30.07,SW,228,2.0,12.0,68,0.00,,,0.00,meteohub,2013-03-05 18:07:00,
2013-03-05 13:12:00,32.7,22.6,30.07,NNE,29,1.0,12.0,66,0.00,,,0.00,meteohub,2013-03-05 18:12:00,
2013-03-05 13:17:00,33.4,22.6,30.07,South,170,2.0,12.0,64,0.00,,,0.00,meteohub,2013-03-05 18:17:00,
2013-03-05 13:22:00,34.2,22.8,30.07,SSW,195,0.0,8.0,63,0.00,,,0.00,meteohub,2013-03-05 18:22:00,
2013-03-05 13:27:00,34.3,23.0,30.07,North,9,6.0,8.0,63,0.00,,,0.00,meteohub,2013-03-05 18:27:00,
2013-03-05 13:32:00,33.4,22.3,30.07,North,0,6.0,10.0,63,0.00,,,0.00,meteohub,2013-03-05 18:32:00,
2013-03-05 13:37:00,33.3,22.5,30.06,North,8,5.0,12.0,64,0.00,,,0.00,meteohub,2013-03-05 18:37:00,
2013-03-05 13:42:00,33.6,23.5,30.07,SSE,161,4.0,12.0,66,0.00,,,0.00,meteohub,2013-03-05 18:42:00,
2013-03-05 13:47:00,33.8,22.5,30.06,South,174,2.0,12.0,63,0.00,,,0.00,meteohub,2013-03-05 18:47:00,
2013-03-05 13:52:00,34.3,23.7,30.06,NE,48,4.0,10.0,65,0.00,,,0.00,meteohub,2013-03-05 18:52:00,
2013-03-05 13:57:00,34.0,22.6,30.06,SW,226,1.0,10.0,63,0.00,,,0.00,meteohub,2013-03-05 18:57:00,
2013-03-05 14:02:00,33.6,22.5,30.06,SSW,192,2.0,13.0,63,0.00,,,0.00,meteohub,2013-03-05 19:02:00,
2013-03-05 14:07:00,34.0,23.0,30.05,North,4,3.0,13.0,64,0.00,,,0.00,meteohub,2013-03-05 19:07:00,
2013-03-05 14:12:00,32.7,21.9,30.05,North,5,5.0,13.0,64,0.00,,,0.00,meteohub,2013-03-05 19:12:00,
2013-03-05 14:17:00,32.4,21.9,30.05,ESE,106,1.0,10.0,65,0.00,,,0.00,meteohub,2013-03-05 19:17:00,
2013-03-05 14:22:00,32.7,22.6,30.05,NE,50,2.0,10.0,66,0.00,,,0.00,meteohub,2013-03-05 19:22:00,
2013-03-05 14:27:00,33.4,23.0,30.05,NNW,337,2.0,9.0,65,0.00,,,0.00,meteohub,2013-03-05 19:27:00,
2013-03-05 14:32:00,34.0,23.0,30.05,SW,216,0.0,9.0,64,0.00,,,0.00,meteohub,2013-03-05 19:32:00,
2013-03-05 14:37:00,33.8,23.4,30.05,WSW,252,1.0,7.0,65,0.00,,,0.00,meteohub,2013-03-05 19:37:00,
2013-03-05 14:42:00,34.0,23.5,30.04,WSW,238,1.0,7.0,65,0.00,,,0.00,meteohub,2013-03-05 19:42:00,
2013-03-05 14:47:00,33.8,22.5,30.04,NNE,17,5.0,7.0,63,0.00,,,0.00,meteohub,2013-03-05 19:47:00,
2013-03-05 14:52:00,33.3,22.8,30.04,West,264,2.0,11.0,65,0.00,,,0.00,meteohub,2013-03-05 19:52:00,
2013-03-05 14:57:00,33.3,22.8,30.04,NW,309,3.0,11.0,65,0.00,,,0.00,meteohub,2013-03-05 19:57:00,
2013-03-05 15:02:00,33.3,23.2,30.04,NNW,330,3.0,11.0,66,0.00,,,0.00,meteohub,2013-03-05 20:02:00,
2013-03-05 15:07:00,32.9,22.8,30.04,SSW,207,3.0,5.0,66,0.00,,,0.00,meteohub,2013-03-05 20:07:00,
2013-03-05 15:12:00,33.1,23.0,30.04,ESE,119,2.0,7.0,66,0.00,,,0.00,meteohub,2013-03-05 20:12:00,
2013-03-05 15:17:00,33.1,23.0,30.04,ENE,58,4.0,7.0,66,0.00,,,0.00,meteohub,2013-03-05 20:17:00,
2013-03-05 15:22:00,33.1,23.0,30.04,SSW,206,0.0,7.0,66,0.00,,,0.00,meteohub,2013-03-05 20:22:00,
2013-03-05 15:27:00,33.3,23.2,30.04,SSW,196,0.0,7.0,66,0.00,,,0.00,meteohub,2013-03-05 20:27:00,
2013-03-05 15:32:00,33.3,23.2,30.04,NE,55,2.0,7.0,66,0.00,,,0.00,meteohub,2013-03-05 20:32:00,
2013-03-05 15:37:00,33.3,23.2,30.04,ENE,74,4.0,7.0,66,0.00,,,0.00,meteohub,2013-03-05 20:37:00,
2013-03-05 15:42:00,33.1,23.0,30.04,East,85,1.0,7.0,66,0.00,,,0.00,meteohub,2013-03-05 20:42:00,
2013-03-05 15:47:00,32.9,23.2,30.04,SE,137,3.0,6.0,67,0.00,,,0.00,meteohub,2013-03-05 20:47:00,
2013-03-05 15:52:00,32.7,22.6,30.04,East,85,5.0,7.0,66,0.00,,,0.00,meteohub,2013-03-05 20:52:00,
2013-03-05 15:57:00,32.4,22.6,30.04,ENE,62,3.0,7.0,67,0.00,,,0.00,meteohub,2013-03-05 20:57:00,
2013-03-05 16:02:00,32.4,23.0,30.04,East,83,4.0,6.0,68,0.00,,,0.00,meteohub,2013-03-05 21:02:00,
2013-03-05 16:07:00,32.2,22.8,30.04,NNW,346,4.0,6.0,68,0.00,,,0.00,meteohub,2013-03-05 21:07:00,
2013-03-05 16:12:00,31.8,22.8,30.04,ESE,102,4.0,7.0,69,0.00,,,0.00,meteohub,2013-03-05 21:12:00,
2013-03-05 16:17:00,31.6,23.0,30.04,SSW,196,0.0,7.0,70,0.00,,,0.00,meteohub,2013-03-05 21:17:00,
2013-03-05 16:22:00,31.8,23.2,30.04,ESE,114,1.0,7.0,70,0.00,,,0.00,meteohub,2013-03-05 21:22:00,
2013-03-05 16:27:00,31.6,22.6,30.04,NE,50,2.0,5.0,69,0.00,,,0.00,meteohub,2013-03-05 21:27:00,
2013-03-05 16:32:00,31.8,23.2,30.04,South,176,0.0,4.0,70,0.00,,,0.00,meteohub,2013-03-05 21:32:00,
2013-03-05 16:37:00,31.5,22.8,30.04,North,356,10.0,10.0,70,0.00,,,0.00,meteohub,2013-03-05 21:37:00,
2013-03-05 16:42:00,31.1,22.5,30.04,NNE,20,5.0,9.0,70,0.00,,,0.00,meteohub,2013-03-05 21:42:00,
2013-03-05 16:47:00,30.7,22.5,30.04,SSW,203,2.0,13.0,71,0.00,,,0.00,meteohub,2013-03-05 21:47:00,
2013-03-05 16:52:00,30.9,23.4,30.04,NNW,329,4.0,13.0,73,0.00,,,0.00,meteohub,2013-03-05 21:52:00,
2013-03-05 16:57:00,30.9,23.0,30.04,SW,216,0.0,13.0,72,0.00,,,0.00,meteohub,2013-03-05 21:57:00,
2013-03-05 17:02:00,31.3,23.0,30.04,NW,325,0.0,11.0,71,0.00,,,0.00,meteohub,2013-03-05 22:02:00,
2013-03-05 17:07:00,30.7,22.8,30.04,NNE,15,5.0,11.0,72,0.00,,,0.00,meteohub,2013-03-05 22:07:00,
2013-03-05 17:12:00,30.7,23.2,30.04,SW,221,1.0,11.0,73,0.00,,,0.00,meteohub,2013-03-05 22:12:00,
2013-03-05 17:18:00,30.7,23.2,30.04,South,183,3.0,11.0,73,0.00,,,0.00,meteohub,2013-03-05 22:18:00,
2013-03-05 17:23:00,30.9,23.4,30.04,WSW,253,1.0,10.0,73,0.00,,,0.00,meteohub,2013-03-05 22:23:00,
2013-03-05 17:28:00,30.6,22.6,30.04,NNE,31,4.0,5.0,72,0.00,,,0.00,meteohub,2013-03-05 22:28:00,
2013-03-05 17:33:00,29.8,22.6,30.05,WNW,282,6.0,12.0,74,0.00,,,0.00,meteohub,2013-03-05 22:33:00,
2013-03-05 17:38:00,29.8,22.8,30.04,North,6,3.0,12.0,75,0.00,,,0.00,meteohub,2013-03-05 22:38:00,
2013-03-05 17:43:00,29.7,22.6,30.04,NE,55,1.0,12.0,75,0.00,,,0.00,meteohub,2013-03-05 22:43:00,
2013-03-05 17:48:00,29.1,22.3,30.04,SSW,211,1.0,8.0,75,0.00,,,0.00,meteohub,2013-03-05 22:48:00,
2013-03-05 17:53:00,28.4,21.7,30.04,NNE,19,6.0,12.0,76,0.00,,,0.00,meteohub,2013-03-05 22:53:00,
2013-03-05 17:58:00,28.2,21.9,30.04,NE,53,6.0,12.0,77,0.00,,,0.00,meteohub,2013-03-05 22:58:00,
2013-03-05 18:03:00,27.9,21.6,30.04,NNE,28,3.0,12.0,77,0.00,,,0.00,meteohub,2013-03-05 23:03:00,
2013-03-05 18:08:00,27.7,21.7,30.04,NNE,12,7.0,12.0,78,0.00,,,0.00,meteohub,2013-03-05 23:08:00,
2013-03-05 18:13:00,27.3,21.4,30.05,NNE,27,7.0,10.0,78,0.00,,,0.00,meteohub,2013-03-05 23:13:00,
2013-03-05 18:18:00,27.1,21.6,30.05,NNE,22,6.0,11.0,79,0.00,,,0.00,meteohub,2013-03-05 23:18:00,
2013-03-05 18:23:00,27.0,21.4,30.05,NNE,27,5.0,14.0,79,0.00,,,0.00,meteohub,2013-03-05 23:23:00,
2013-03-05 18:28:00,27.0,21.6,30.05,ENE,72,4.0,14.0,80,0.00,,,0.00,meteohub,2013-03-05 23:28:00,
2013-03-05 18:33:00,26.8,21.4,30.05,ENE,73,3.0,14.0,80,0.00,,,0.00,meteohub,2013-03-05 23:33:00,
2013-03-05 18:38:00,26.4,21.0,30.05,NNE,32,7.0,11.0,80,0.00,,,0.00,meteohub,2013-03-05 23:38:00,
2013-03-05 18:43:00,26.2,20.8,30.05,NE,50,4.0,11.0,80,0.00,,,0.00,meteohub,2013-03-05 23:43:00,
2013-03-05 18:48:00,26.2,21.2,30.06,ESE,110,2.0,16.0,81,0.00,,,0.00,meteohub,2013-03-05 23:48:00,
2013-03-05 18:53:00,26.2,21.2,30.06,NNE,32,6.0,16.0,81,0.00,,,0.00,meteohub,2013-03-05 23:53:00,
2013-03-05 18:58:00,26.1,21.0,30.06,ENE,62,0.0,16.0,81,0.00,,,0.00,meteohub,2013-03-05 23:58:00,
2013-03-05 19:03:00,26.1,21.4,30.06,SE,144,0.0,6.0,82,0.00,,,0.00,meteohub,2013-03-06 00:03:00,
2013-03-05 19:08:00,26.1,21.0,30.06,SSW,203,2.0,6.0,81,0.00,,,0.00,meteohub,2013-03-06 00:08:00,
2013-03-05 19:13:00,25.9,20.8,30.06,NNE,24,6.0,7.0,81,0.00,,,0.00,meteohub,2013-03-06 00:13:00,
2013-03-05 19:18:00,25.5,20.8,30.06,North,351,2.0,14.0,82,0.00,,,0.00,meteohub,2013-03-06 00:18:00,
2013-03-05 19:23:00,25.3,20.8,30.07,North,4,5.0,14.0,83,0.00,,,0.00,meteohub,2013-03-06 00:23:00,
2013-03-05 19:28:00,25.3,20.8,30.07,ENE,75,1.0,14.0,83,0.00,,,0.00,meteohub,2013-03-06 00:28:00,
2013-03-05 19:33:00,25.5,21.0,30.07,SW,218,0.0,10.0,83,0.00,,,0.00,meteohub,2013-03-06 00:33:00,
2013-03-05 19:38:00,25.5,21.0,30.07,SE,131,2.0,10.0,83,0.00,,,0.00,meteohub,2013-03-06 00:38:00,
2013-03-05 19:43:00,25.5,21.0,30.07,SSE,157,0.0,8.0,83,0.00,,,0.00,meteohub,2013-03-06 00:43:00,
2013-03-05 19:48:00,25.3,20.8,30.07,East,96,3.0,8.0,83,0.00,,,0.00,meteohub,2013-03-06 00:48:00,
2013-03-05 19:54:00,25.5,21.4,30.07,NE,41,1.0,9.0,84,0.00,,,0.00,meteohub,2013-03-06 00:54:00,
2013-03-05 19:59:00,25.5,21.4,30.07,WNW,302,2.0,9.0,84,0.00,,,0.00,meteohub,2013-03-06 00:59:00,
2013-03-05 20:04:00,25.5,21.0,30.08,East,90,3.0,7.0,83,0.00,,,0.00,meteohub,2013-03-06 01:04:00,
2013-03-05 20:09:00,25.5,21.0,30.08,North,352,3.0,5.0,83,0.00,,,0.00,meteohub,2013-03-06 01:09:00,
2013-03-05 20:14:00,25.7,21.2,30.08,WSW,241,3.0,6.0,83,0.00,,,0.00,meteohub,2013-03-06 01:14:00,
2013-03-05 20:19:00,25.7,21.2,30.08,ENE,64,1.0,6.0,83,0.00,,,0.00,meteohub,2013-03-06 01:19:00,
2013-03-05 20:24:00,25.7,21.2,30.08,ENE,60,1.0,6.0,83,0.00,,,0.00,meteohub,2013-03-06 01:24:00,
2013-03-05 20:29:00,25.7,21.2,30.08,South,175,0.0,3.0,83,0.00,,,0.00,meteohub,2013-03-06 01:29:00,
2013-03-05 20:34:00,25.9,21.7,30.08,SW,231,0.0,4.0,84,0.00,,,0.00,meteohub,2013-03-06 01:34:00,
2013-03-05 20:39:00,25.9,21.7,30.08,SSW,199,0.0,4.0,84,0.00,,,0.00,meteohub,2013-03-06 01:39:00,
2013-03-05 20:44:00,25.9,21.7,30.08,SSW,204,0.0,4.0,84,0.00,,,0.00,meteohub,2013-03-06 01:44:00,
2013-03-05 20:49:00,26.1,21.6,30.08,ENE,60,0.0,3.0,83,0.00,,,0.00,meteohub,2013-03-06 01:49:00,
2013-03-05 20:54:00,25.9,21.4,30.09,East,95,1.0,3.0,83,0.00,,,0.00,meteohub,2013-03-06 01:54:00,
2013-03-05 20:59:00,26.1,21.9,30.09,SW,230,2.0,3.0,84,0.00,,,0.00,meteohub,2013-03-06 01:59:00,
2013-03-05 21:04:00,26.2,21.7,30.09,SSW,210,0.0,3.0,83,0.00,,,0.00,meteohub,2013-03-06 02:04:00,
2013-03-05 21:09:00,26.2,21.6,30.09,SW,236,2.0,4.0,82,0.00,,,0.00,meteohub,2013-03-06 02:09:00,
2013-03-05 21:14:00,26.4,21.4,30.09,West,269,1.0,5.0,81,0.00,,,0.00,meteohub,2013-03-06 02:14:00,
2013-03-05 21:19:00,26.4,21.4,30.09,NW,309,0.0,5.0,81,0.00,,,0.00,meteohub,2013-03-06 02:19:00,
2013-03-05 21:24:00,26.4,21.4,30.09,ENE,57,2.0,5.0,81,0.00,,,0.00,meteohub,2013-03-06 02:24:00,
2013-03-05 21:29:00,26.4,21.4,30.09,NW,326,2.0,5.0,81,0.00,,,0.00,meteohub,2013-03-06 02:29:00,
2013-03-05 21:34:00,26.4,21.4,30.09,ENE,60,2.0,3.0,81,0.00,,,0.00,meteohub,2013-03-06 02:34:00,
2013-03-05 21:39:00,26.4,21.0,30.09,NE,43,4.0,4.0,80,0.00,,,0.00,meteohub,2013-03-06 02:39:00,
2013-03-05 21:44:00,26.4,21.0,30.09,WNW,287,0.0,4.0,80,0.00,,,0.00,meteohub,2013-03-06 02:44:00,
2013-03-05 21:49:00,26.2,20.8,30.09,North,356,1.0,4.0,80,0.00,,,0.00,meteohub,2013-03-06 02:49:00,
2013-03-05 21:54:00,26.2,20.8,30.09,NW,310,3.0,6.0,80,0.00,,,0.00,meteohub,2013-03-06 02:54:00,
2013-03-05 21:59:00,26.2,20.7,30.10,NE,55,6.0,6.0,79,0.00,,,0.00,meteohub,2013-03-06 02:59:00,
2013-03-05 22:04:00,26.2,20.7,30.10,NNE,25,2.0,6.0,79,0.00,,,0.00,meteohub,2013-03-06 03:04:00,
2013-03-05 22:09:00,26.2,20.8,30.10,North,356,1.0,7.0,80,0.00,,,0.00,meteohub,2013-03-06 03:09:00,
2013-03-05 22:14:00,26.2,20.7,30.10,NNW,345,2.0,7.0,79,0.00,,,0.00,meteohub,2013-03-06 03:14:00,
2013-03-05 22:19:00,26.2,20.8,30.10,NW,326,3.0,5.0,80,0.00,,,0.00,meteohub,2013-03-06 03:19:00,
2013-03-05 22:24:00,26.2,20.8,30.10,SW,234,0.0,5.0,80,0.00,,,0.00,meteohub,2013-03-06 03:24:00,
2013-03-05 22:29:00,26.2,20.8,30.10,NNW,328,1.0,5.0,80,0.00,,,0.00,meteohub,2013-03-06 03:29:00,
2013-03-05 22:34:00,26.1,21.0,30.10,WNW,296,2.0,5.0,81,0.00,,,0.00,meteohub,2013-03-06 03:34:00,
2013-03-05 22:39:00,26.1,21.0,30.09,NNE,15,2.0,4.0,81,0.00,,,0.00,meteohub,2013-03-06 03:39:00,
2013-03-05 22:44:00,25.9,20.8,30.09,West,275,1.0,3.0,81,0.00,,,0.00,meteohub,2013-03-06 03:44:00,
2013-03-05 22:49:00,25.9,20.8,30.09,North,1,2.0,4.0,81,0.00,,,0.00,meteohub,2013-03-06 03:49:00,
2013-03-05 22:54:00,25.7,20.7,30.09,NNW,344,1.0,4.0,81,0.00,,,0.00,meteohub,2013-03-06 03:54:00,
2013-03-05 22:59:00,25.5,20.5,30.09,North,350,1.0,4.0,81,0.00,,,0.00,meteohub,2013-03-06 03:59:00,
2013-03-05 23:04:00,25.5,20.8,30.10,North,8,0.0,4.0,82,0.00,,,0.00,meteohub,2013-03-06 04:04:00,
2013-03-05 23:09:00,25.5,20.5,30.09,WNW,302,2.0,4.0,81,0.00,,,0.00,meteohub,2013-03-06 04:09:00,
2013-03-05 23:14:00,25.5,20.8,30.09,NE,48,1.0,4.0,82,0.00,,,0.00,meteohub,2013-03-06 04:14:00,
2013-03-05 23:19:00,25.5,20.8,30.09,WNW,293,1.0,4.0,82,0.00,,,0.00,meteohub,2013-03-06 04:19:00,
2013-03-05 23:24:00,25.5,20.8,30.09,NW,306,2.0,4.0,82,0.00,,,0.00,meteohub,2013-03-06 04:24:00,
2013-03-05 23:29:00,25.5,20.8,30.10,North,358,3.0,3.0,82,0.00,,,0.00,meteohub,2013-03-06 04:29:00,
2013-03-05 23:34:00,25.5,20.8,30.10,WNW,283,1.0,4.0,82,0.00,,,0.00,meteohub,2013-03-06 04:34:00,
2013-03-05 23:39:00,25.5,20.8,30.10,WNW,290,1.0,4.0,82,0.00,,,0.00,meteohub,2013-03-06 04:39:00,
2013-03-05 23:44:00,25.7,21.0,30.10,WNW,289,2.0,4.0,82,0.00,,,0.00,meteohub,2013-03-06 04:44:00,
2013-03-05 23:49:00,25.9,21.2,30.10,WNW,282,1.0,4.0,82,0.00,,,0.00,meteohub,2013-03-06 04:49:00,
2013-03-05 23:54:00,25.9,21.2,30.10,WNW,298,0.0,4.0,82,0.00,,,0.00,meteohub,2013-03-06 04:54:00,
2013-03-05 23:59:00,25.9,21.2,30.10,WSW,255,0.0,4.0,82,0.00,,,0.00,meteohub,2013-03-06 04:59:00,